User: anonymous   Login
Location: Unspecified
(0.0000°N, 0.0000°E)
Time: 22:26:21
(UTC+00:00)
Language:

STARLINK-33566 - Orbit

View from above orbital plane
View from above orbital plane
View from above satellite
View from above satellite

Ground track
Ground track

The orbit is defined by the following mean orbital elements,

1 62100U          26145.40593175 +.00000000 +00000-0 +31665-3 0 00008
2 62100  42.9990 117.5812 0001369 270.1826  89.8868 15.27584717    08
Epoch (UTC): 25 May 2026 09:44:32
Eccentricity: 0.0001369
inclination: 42.9990°
perigee height: 482 km
apogee height: 484 km
right ascension of ascending node: 117.5812°
argument of perigee: 270.1826°
revolutions per day: 15.27584717
mean anomaly at epoch: 89.8868°

The dashed part of the orbit path shows where the satellite is in the earth's shadow,  

DLR